Newport, AR

8:11 AM CST on December 18, 2017 (GMT -0600)
Newport

Weather History for KM19 - August, 2013

Change the Weather History Date:

Saturday, August 3, 2013

  Actual Average (KBVX) Record (KBVX)
Temperature  
Mean Temperature 76 °F -  
Max Temperature 79 °F 92 °F 111 °F (2011)
Min Temperature 72 °F 66 °F 53 °F (1976)
Cooling Degree Days 10    
Growing Degree Days 26 (Base 50)    
Moisture  
Dew Point 73 °F    
Average Humidity 90    
Maximum Humidity 100    
Minimum Humidity 74    
Precipitation  
Precipitation 0.27 in - - ()
Sea Level Pressure  
Sea Level Pressure 30.03 in    
Wind  
Wind Speed 4 mph (NNW)    
Max Wind Speed 13 mph    
Max Gust Speed -    
Visibility 9 miles    
Events Rain , Thunderstorm    
Averages and records for this station are not official NWS values.
T = Trace of Precipitation, MM = Missing Value Source: NWS Daily Summary

Daily Weather History Graph

Daily Weather History Graph

Search for Another Location

Airport or City:

Trip Planner

Search our weather history database for the weather conditions in past years. The results will help you decide how hot, cold, wet, or windy it might be!

Date:

Astronomy

Aug. 03, 2013 Rise Set
Actual Time 6:14 AM CDT 8:06 PM CDT
Civil Twilight 5:46 AM CDT 8:34 PM CDT
Nautical Twilight 5:12 AM CDT 9:08 PM CDT
Astronomical Twilight 4:36 AM CDT 9:44 PM CDT
Moon 3:25 AM CDT (8/3) 5:48 PM CDT (8/3)
Length of Visible Light 14h 47m
Length of Day
13h 52m
Waning Crescent, 9% of the Moon is Illuminated
Aug 3
Waning Crescent
Aug 6
New
Aug 14
First Quarter
Aug 20
Full
Aug 28
Last Quarter

Hourly Weather History & Observations

Time (CDT) Temp. Dew Point Humidity Pressure Visibility Wind Dir Wind Speed Gust Speed Precip Events Conditions
12:56 AM 75.9 °F 72.9 °F 90% 29.96 in 10.0 mi Calm Calm - N/A   Clear
1:56 AM 74.8 °F 73.9 °F 97% 29.96 in 10.0 mi SE 3.5 mph - N/A   Mostly Cloudy
2:56 AM 75.9 °F 73.9 °F 94% 29.95 in 10.0 mi Calm Calm - N/A   Partly Cloudy
3:56 AM 75.9 °F 72.9 °F 90% 29.91 in 10.0 mi SSW 9.2 mph - N/A   Clear
4:56 AM 75.9 °F 72.0 °F 87% 29.92 in 10.0 mi South 4.6 mph - N/A   Clear
5:56 AM 75.9 °F 72.9 °F 90% 29.93 in 10.0 mi South 8.1 mph - N/A   Clear
6:56 AM 75.9 °F 72.9 °F 90% 29.94 in 10.0 mi South 5.8 mph - N/A   Clear
7:56 AM 75.9 °F 73.9 °F 94% 30.01 in 8.0 mi NNW 6.9 mph - 0.00 in Rain Light Rain
8:45 AM 75.2 °F 75.2 °F 100% 30.04 in 4.0 mi Calm Calm - 0.02 in Rain , Thunderstorm Light Thunderstorms and Rain
8:56 AM 75.9 °F 75.9 °F 100% 30.04 in 4.0 mi Calm Calm - 0.04 in Rain , Thunderstorm Light Thunderstorms and Rain
9:08 AM 75.2 °F 75.2 °F 100% 30.05 in 6.0 mi West 3.5 mph - 0.01 in Rain , Thunderstorm Light Thunderstorms and Rain
9:29 AM 75.2 °F 75.2 °F 100% 30.05 in 4.0 mi NNW 8.1 mph - 0.10 in Rain , Thunderstorm Thunderstorms and Rain
9:43 AM 75.2 °F 75.2 °F 100% 30.05 in 3.0 mi North 5.8 mph - 0.13 in Rain Rain
9:56 AM 75.9 °F 75.9 °F 100% 30.05 in 4.0 mi North 10.4 mph - 0.18 in Rain Rain
10:06 AM 75.2 °F 75.2 °F 100% 30.07 in 5.0 mi NNW 11.5 mph - 0.01 in Rain Light Rain
10:25 AM 75.2 °F 75.2 °F 100% 30.05 in 4.0 mi NNW 8.1 mph - 0.03 in Rain Light Rain
10:56 AM 72.9 °F 72.0 °F 97% 30.02 in 10.0 mi North 8.1 mph - 0.05 in Rain Light Rain
11:09 AM 73.4 °F 71.6 °F 94% 30.02 in 10.0 mi NE 6.9 mph - 0.00 in Rain Light Rain
11:40 AM 73.4 °F 71.6 °F 94% 30.06 in 10.0 mi NW 12.7 mph - 0.00 in Rain Light Rain
11:49 AM 73.4 °F 71.6 °F 94% 30.06 in 10.0 mi NNW 9.2 mph - 0.00 in Rain Light Rain
11:56 AM 72.0 °F 70.0 °F 93% 30.05 in 10.0 mi NNW 5.8 mph - 0.00 in Rain Light Rain
12:56 PM 73.9 °F 70.0 °F 87% 30.06 in 10.0 mi West 4.6 mph - 0.00 in   Overcast
1:34 PM 75.2 °F 69.8 °F 83% 30.05 in 10.0 mi Calm Calm - N/A   Scattered Clouds
1:56 PM 77.9 °F 70.0 °F 76% 30.04 in 10.0 mi SW 3.5 mph - N/A   Clear
2:44 PM 78.8 °F 71.6 °F 78% 30.06 in 10.0 mi NNE 8.1 mph - N/A   Overcast
2:56 PM 77.9 °F 72.0 °F 82% 30.05 in 10.0 mi North 8.1 mph - N/A   Mostly Cloudy
3:09 PM 78.8 °F 71.6 °F 78% 30.05 in 10.0 mi NNE 11.5 mph - N/A   Overcast
3:56 PM 77.0 °F 70.9 °F 81% 30.04 in 10.0 mi Calm Calm - N/A   Scattered Clouds
4:56 PM 77.9 °F 72.9 °F 84% 30.05 in 10.0 mi ENE 4.6 mph - N/A   Scattered Clouds
5:03 PM 78.8 °F 71.6 °F 78% 30.06 in 10.0 mi Calm Calm - N/A   Mostly Cloudy
5:17 PM 78.8 °F 71.6 °F 78% 30.05 in 10.0 mi Calm Calm - N/A   Scattered Clouds
5:56 PM 77.9 °F 72.0 °F 82% 30.05 in 10.0 mi Calm Calm - N/A   Clear
6:56 PM 79.9 °F 70.9 °F 74% 30.05 in 10.0 mi Calm Calm - N/A   Scattered Clouds
7:56 PM 77.9 °F 70.9 °F 79% 30.06 in 10.0 mi West 3.5 mph - N/A   Clear
8:56 PM 74.8 °F 70.9 °F 87% 30.06 in 10.0 mi Calm Calm - N/A   Clear
9:56 PM 72.9 °F 72.9 °F 100% 30.07 in 10.0 mi Calm Calm - N/A   Clear
10:56 PM 72.9 °F 72.0 °F 97% 30.09 in 10.0 mi Calm Calm - N/A   Clear
11:56 PM 72.0 °F 72.0 °F 100% 30.09 in 10.0 mi NNW 3.5 mph - N/A   Clear